Location: Prairie State College
(41.5244°N, 87.6382°W)
Time: 05:51:59
(UTC-05:00)

ARGOS Delta rocket - Visible Passes

Search period start: 25 July 2017 00:00
Search period end: 04 August 2017 00:00
Orbit: 635 x 839 km, 96.5° (Epoch: 25 July)

Date Brightness Start Highest point End Pass type
(mag) Time Alt. Az. Time Alt. Az. Time Alt. Az.
25 Jul 4.8 22:42:57 10° NNE 22:46:12 29° ENE 22:46:12 29° ENE visible
26 Jul 5.4 00:21:52 10° NNW 00:25:26 24° WNW 00:25:48 23° WNW visible
26 Jul 3.9 23:36:11 10° N 23:40:16 64° NW 23:40:16 64° NW visible
27 Jul 4.5 22:51:20 10° NNE 22:54:44 36° ENE 22:54:44 36° ENE visible
28 Jul 5.8 00:30:47 10° NNW 00:33:52 19° WNW 00:34:20 18° WNW visible
28 Jul 5.7 22:07:54 10° ENE 22:09:11 13° ENE 22:09:11 13° ENE visible
28 Jul 4.3 23:44:49 10° N 23:48:47 50° WNW 23:48:47 50° WNW visible
29 Jul 4.3 22:59:46 10° NNE 23:03:15 44° ENE 23:03:15 44° ENE visible
30 Jul 6.0 00:39:50 10° NNW 00:42:19 15° WNW 00:42:51 15° WNW visible
30 Jul 5.5 22:15:49 10° NE 22:17:42 16° ENE 22:17:42 16° ENE visible
30 Jul 4.7 23:53:29 10° N 23:57:18 39° WNW 23:57:18 39° WNW visible
31 Jul 4.1 23:08:15 10° NNE 23:11:45 52° NE 23:11:45 52° NE visible
01 Aug 6.3 00:49:11 10° NW 00:50:43 12° WNW 00:51:22 11° WNW visible
01 Aug 5.3 22:23:56 10° NE 22:26:13 20° ENE 22:26:13 20° ENE visible
02 Aug 5.1 00:02:12 10° N 00:05:49 31° WNW 00:05:49 31° WNW visible
02 Aug 4.1 23:16:45 10° NNE 23:20:16 56° NNE 23:20:16 56° NNE visible
03 Aug 5.1 22:32:11 10° NE 22:34:43 24° ENE 22:34:43 24° ENE visible
